Location: Obersdorf
(47.4079°N, 10.2781°E)
Time: 12:03:28
(UTC+01:00)

XW-2C - Pass Details

Date: 12 December 2021
Orbit: 503 x 523 km, 97.5° (Epoch: 16 January)

Event Time Altitude Azimuth Distance (km) Brightness Sun altitude
Rises 18:07:06 0° 193° (SSW) 2,624 ? -15.9°
Reaches altitude 10° 18:09:24 10° 205° (SSW) 1,746 ? -16.3°
Maximum altitude 18:12:39 27° 265° (W) 1,026 ? -16.8°
Drops below altitude 10° 18:15:56 10° 324° (NW) 1,768 ? -17.3°
Sets 18:18:18 0° 337° (NNW) 2,665 ? -17.7°
